sat.trackr.live / text

‹ back to catalog

STARLINK-35944

NORAD 66928 · 2025-286D

PAYLOAD ACTIVE UNKNOWN

§ Identity

Operator
Country
US
Launch date
2025-12-07
Launch site
AFWTR
Launch vehicle
Mass (kg)
RCS (m²)

Purposes: comms

External: N2YO · Heavens-Above · Gunter

§ Orbital elements

Epoch: 2026-05-25T00:32:11.995584Z

Period
93.85 min
Inclination
53.1606°
Eccentricity
0.0001074
Mean motion
15.34405060 rev/d
Perigee alt
462.0 km
Apogee alt
463.4 km
Semi-major
6,840.8 km
B*
1.1576e-3
RAAN
3.8966°
Arg perigee
87.7701°
Mean anomaly
272.3424°
Rev number
2,710

§ Raw data

STARLINK-359441 66928U 25286D   26145.02236106  .00038944  00000+0  11576-2 0  99912 66928  53.1606   3.8966 0001074  87.7701 272.3424 15.34405060 27100

JSON: /api/v1/satellites/66928 · /tle

For live sub-satellite position, see the globe view (requires WebGL).

§ Visibility from observer

Set your observer location to see the next 7 days of passes ≥ 10°. The values pass through the URL so the page stays shareable.

No JS? Fill the form by hand. The geolocation button needs JavaScript.